Location: Azul
(36.7830°S, 59.8500°W)
Time: 10:16:24
(UTC-03:00)

UNISAT 6 - Visible Passes

Search period start: 22 October 2021 00:00
Search period end: 01 November 2021 00:00
Orbit: 607 x 687 km, 97.7° (Epoch: 21 October)

Date Brightness Start Highest point End Pass type
(mag) Time Alt. Az. Time Alt. Az. Time Alt. Az.
24 Oct ? 20:05:11 10° NW 20:08:30 22° W 20:11:53 10° SW visible
25 Oct ? 20:33:10 10° WNW 20:34:19 11° W 20:35:29 10° WSW visible
28 Oct ? 20:11:14 10° NW 20:14:16 19° W 20:17:21 10° SW visible
31 Oct ? 19:50:26 10° NNW 19:54:15 31° W 19:58:10 10° SSW visible
